Regional Weather Roundup
Issued by NWS

Home | Current Version | Previous Version | Text Only | Print | Product List | Glossary Off
Versions: 1 2 3 4 5 6 7 8 9 10 11 12 13 14 15 16 17 18 19 20 21 22 23 24 25 26 27 28 29 30 31 32 33 34 35 36 37 38 39 40 41 42 43 44 45 46 47 48 49 50

000
ASUS43 KBIS 290502
RWRND

NORTH DAKOTA REGIONAL WEATHER ROUNDUP
NATIONAL WEATHER SERVICE BISMARCK ND
1200 AM CDT FRI MAY 29 2015

NOTE: "FAIR" INDICATES FEW OR NO CLOUDS BELOW 12,000 FEET WITH NO
SIGNIFICANT WEATHER AND/OR OBSTRUCTIONS TO VISIBILITY.


NDZ001>003-009>011-017-290600-
NORTHWEST NORTH DAKOTA

CITY           SKY/WX    TMP DP  RH WIND       PRES   REMARKS
WILLISTON      CLOUDY    51  42  71 N21G35    30.11S
MINOT          LGT RAIN  52  45  77 N20G35    30.04R
$$

NDZ018>021-031>035-040>046-290600-
SOUTHWEST NORTH DAKOTA

CITY           SKY/WX    TMP DP  RH WIND       PRES   REMARKS
BISMARCK       CLOUDY    65  55  70 N9        29.94R
DICKINSON      CLOUDY    57  50  77 N20       30.01R
GARRISON         N/A     53  47  79 N14G28    30.01R
HETTINGER ARPT RAIN      58  55  90 NW14      29.99R FOG
$$

NDZ004>008-012>016-024-026-027-054-290600-
NORTHEAST NORTH DAKOTA

CITY           SKY/WX    TMP DP  RH WIND       PRES   REMARKS
GRAND FORKS    CLOUDY    62  59  90 N17       29.86S
DEVILS LAKE    MOCLDY    63  52  67 N20G25    29.91R
$$

NDZ022-023-025-028>030-036>039-047>053-290600-
SOUTHEAST NORTH DAKOTA

CITY           SKY/WX    TMP DP  RH WIND       PRES   REMARKS
FARGO          LGT RAIN  63  61  93 S14       29.84S
JAMESTOWN      CLOUDY    64  58  80 N13       29.87R
$$




USA.gov is the U.S. government's official web portal to all federal, state and local government web resources and services.